This is the latest recevied weather packets stored in our database for station/object K3BAY-1. If no packets are shown the sender has not sent any weather packets the latest 10 day(s).
| Time | Temp. | Humidity | Pressure | Rain* | Wind** | Luminosity | Snow |
|---|---|---|---|---|---|---|---|
| 1777744110 | 15° C | 46% | 1012.9 hPa | 0 mm | - | 730 W/m² | - |
| 1777743807 | 15.56° C | 44% | 1013.2 hPa | 0 mm | - | 699 W/m² | - |
| 1777743503 | 15.56° C | 45% | 1012.9 hPa | 0 mm | - | 522 W/m² | - |
| 1777743200 | 15° C | 46% | 1013.2 hPa | 0 mm | - | 473 W/m² | - |
| 1777742899 | 15° C | 49% | 1013.2 hPa | 0 mm | - | 628 W/m² | - |
| 1777742594 | 15° C | 48% | 1013.2 hPa | 0 mm | - | 502 W/m² | - |
| 1777741565 | 14.44° C | 52% | 1012.9 hPa | 0 mm | - | 246 W/m² | - |
| 1777741262 | 14.44° C | 52% | 1012.9 hPa | 0 mm | - | 246 W/m² | - |
| 1777740959 | 14.44° C | 53% | 1012.9 hPa | 0 mm | - | 237 W/m² | - |
| 1777740656 | 14.44° C | 47% | 1012.6 hPa | 0 mm | - | 224 W/m² | - |
| 1777740352 | 14.44° C | 48% | 1012.9 hPa | 0 mm | - | 219 W/m² | - |
| 1777740049 | 13.89° C | 49% | 1012.9 hPa | 0 mm | - | 351 W/m² | - |
| 1777739745 | 13.89° C | 49% | 1012.9 hPa | 0 mm | - | 351 W/m² | - |
| 1777739442 | 13.89° C | 51% | 1012.9 hPa | 0 mm | - | 246 W/m² | - |
| 1777739139 | 13.89° C | 51% | 1012.6 hPa | 0 mm | - | 193 W/m² | - |
| 1777738836 | 13.89° C | 51% | 1012.6 hPa | 0 mm | - | 193 W/m² | - |
| 1777738532 | 13.89° C | 50% | 1012.9 hPa | 0 mm | - | 200 W/m² | - |
| 1777738231 | 13.89° C | 53% | 1012.6 hPa | 0 mm | - | 219 W/m² | - |
| 1777737928 | 14.44° C | 52% | 1012.9 hPa | 0 mm | - | 224 W/m² | - |
| 1777737626 | 14.44° C | 52% | 1012.9 hPa | 0 mm | - | 224 W/m² | - |
| 1777737325 | 13.33° C | 55% | 1012.6 hPa | 0 mm | - | 209 W/m² | - |
| 1777737021 | 12.78° C | 59% | 1012.6 hPa | 0 mm | - | 203 W/m² | - |
| 1777736717 | 13.89° C | 57% | 1012.6 hPa | 0 mm | - | 155 W/m² | - |
| 1777736084 | 12.22° C | 58% | 1012.6 hPa | 0 mm | - | 157 W/m² | - |
| 1777735780 | 12.78° C | 57% | 1012.6 hPa | 0 mm | - | 157 W/m² | - |
* Rain latest hour (hover to see other rain measurements)
** Current wind speed in m/s (hover to see current wind gust speed)